Home > Weather > Southend-on-Sea > Past weeks

Flag for United Kingdom Past Weather in Southend-on-Sea, England, United Kingdom — Yesterday and Last 2 Weeks

Now
63 °F

Passing clouds.


Feels Like: 63 °F
Forecast: 53 / 64 °F
Wind: 12 mph from Southwest

Location: Southend Airport-On-Sea

Current Time: Jun 24, 2016 at 9:35:48 PM

Latest Report: Jun 24, 2016 at 9:20 PM


Visibility: N/A

Pressure: 30.04 "Hg

Humidity: 73%

Dew Point: 54 °F

Location of Southend-on-SeaLocation

Past Weather in Southend-on-Sea — Graph

°F

Southend-on-Sea Temperature Yesterday

Maximum temperature yesterday: 72 °F (at 11:20 AM)
Minimum temperature yesterday: 63 °F (at 4:20 AM)
Average temperature yesterday: 67 °F

High & Low Weather Summary for the Past Weeks

 TemperatureHumidityPressure
High73 °F (Jun 20, 6:50 PM)100% (Jun 23, 5:20 AM)30.24 "Hg (Jun 23, 5:20 AM)
Low48 °F (Jun 10, 2:50 AM)46% (Jun 19, 2:50 PM)29.39 "Hg (Jun 14, 2:20 PM)
Average61 °F78%29.83 "Hg
* Reported Jun 9 8:20 PM — Jun 24 8:20 PM, Southend-on-Sea, Weather by CustomWeather, © 2016

Note: Actual official high and low records may vary slightly from our data, if they occured in-between our weather recording intervals... More about our weather records

Advertising

Southend-on-Sea Weather History for the Previous 24 Hours

Scroll right to see more
 ConditionsComfort  
Time TempWeatherWind HumidityBarometerVisibility
8:20 PM
Fri, Jun 24
63 °FPassing clouds.14 mph68%30.04 "HgN/A
7:50 PM64 °FPassing clouds.16 mph68%30.04 "HgN/A
7:20 PM66 °FPassing clouds.17 mph60%30.04 "HgN/A
6:50 PM68 °FPassing clouds.15 mph60%30.04 "HgN/A
6:20 PM66 °FPassing clouds.17 mph56%30.04 "HgN/A
5:50 PM70 °FPassing clouds.16 mph57%30.04 "HgN/A
5:20 PM70 °FPassing clouds.18 mph53%30.04 "HgN/A
4:50 PM70 °FPassing clouds.16 mph57%30.04 "HgN/A
4:20 PM70 °FPassing clouds.17 mph53%30.04 "HgN/A
3:50 PM72 °FPassing clouds.16 mph53%30.04 "HgN/A
3:20 PM72 °FPassing clouds.16 mph53%30.04 "HgN/A
2:50 PM72 °FPassing clouds.14 mph53%30.04 "HgN/A
2:20 PM72 °FScattered clouds.13 mph53%30.04 "HgN/A
1:50 PM70 °FScattered clouds.13 mph57%30.04 "HgN/A
1:20 PM72 °FScattered clouds.13 mph53%30.07 "HgN/A
12:50 PM70 °FScattered clouds.13 mph57%30.07 "HgN/A
12:20 PM68 °FScattered clouds.13 mph56%30.07 "HgN/A
11:50 AM68 °FPassing clouds.13 mph60%30.07 "HgN/A
11:20 AM66 °FScattered clouds.12 mph64%30.07 "HgN/A
10:50 AM64 °FScattered clouds.12 mph68%30.07 "HgN/A
10:20 AM66 °FPassing clouds.12 mph64%30.07 "HgN/A
9:50 AM64 °FPassing clouds.10 mph68%30.07 "HgN/A
9:20 AM63 °FPassing clouds.9 mph73%30.07 "HgN/A
8:50 AM61 °FPassing clouds.12 mph77%30.07 "HgN/A
8:20 AM61 °FPassing clouds.8 mph77%30.07 "HgN/A
7:50 AM61 °FPassing clouds.9 mph83%30.07 "HgN/A
7:20 AM59 °FPassing clouds.8 mph82%30.07 "HgN/A
6:50 AM57 °FPassing clouds.8 mph88%30.04 "HgN/A
6:20 AM57 °FPassing clouds.9 mph88%30.04 "HgN/A
5:50 AM55 °FSunny.7 mph94%30.04 "Hg10 mi
5:20 AM55 °FClear.7 mph94%30.04 "Hg10 mi
4:50 AM55 °FClear.7 mph88%30.04 "Hg10 mi
3:50 AM57 °FClear.9 mph94%30.01 "Hg10 mi
2:50 AM61 °FPassing clouds.12 mph88%30.01 "HgN/A
12:50 AM64 °FPassing clouds.7 mph94%30.01 "HgN/A
12:20 AM64 °FPartly cloudy.8 mph94%30.01 "HgN/A
11:50 PM
Thu, Jun 23
64 °FPassing clouds.6 mph94%30.01 "HgN/A
11:20 PM64 °FPassing clouds.6 mph94%30.01 "HgN/A
10:50 PM64 °FPassing clouds.6 mph94%29.98 "HgN/A
10:20 PM68 °FPassing clouds.7 mph88%29.98 "HgN/A
9:50 PM64 °FBroken clouds.5 mph94%29.98 "HgN/A
9:20 PM66 °FScattered clouds.6 mph88%29.98 "HgN/A
Weather by CustomWeather, © 2016

See weather overviewHow to use our weather pages